OPS 4682 DEB, 38410

Orbit data source: Space-Track

OPS 4682 DEB, 38410 is space debris in LEO originally from a launch on Sat, 03 Apr 1965 UTC launched from the Air Force Western Test Range (AFWTR). Debris objects in space refer to the collection of defunct objects orbiting the Earth. Examples of debris include non-operational satellites, rocket bodies, and fragments generated from explosions, collisions, or faulty payload assembly.

Loading next visibility...
Identifier
38410, 1965-027DP
Orbit
LEO
Country
Flag of USUS
Related business
Manufacturer
Unknown
Mission
Spacecraft
Bus & Motor
Unknown
Mass
Unknown
Launch date (UTC)
1965-04-03 (61 years ago)
Launch vehicle
Unknown
Launch site
Air Force Western Test Range (AFWTR)
Object type
Payload
Rocket body
Debris
Shape & HBR
Unknown shape, 0.1 m
Radar Cross Section
Small (<0.1 m²)

Expand to show TLE details & history
Last TLE update: 7 hours ago

TLE from 7 hours ago
0 OPS 4682 DEB
1 38410U 65027DP  26132.10633125  .00000610  00000-0  20688-2 0  9994
2 38410  90.2462  10.0018 0030710 199.3379 160.6579 12.97552191626328
Epoch: 2026-05-12T02:33Z
TLE epoch observation values (Epoch: 2026-05-12T02:33:07.019Z)
Latitude
0.00003°
Longitude
101.83708°
Altitude
1,296.751 km
Speed
7.198 km/s
True Right ascension
00h 40m 00s
True Declination
0° 00' 00"
Sunlit
Object was in daylight at epoch
Visualization orbit readout
Latitude
Unknown
Longitude
Unknown
Altitude
Unknown
Speed
Unknown
Apparent Right ascension
Unknown
Apparent Declination
Unknown
Sunlit
N/A
Visualization observer readout
Local Sidereal Time
18:07:11
Azimuth
Unknown
Elevation
Unknown
Doppler factor
Unknown
Orbital elements
Apogee altitude
1,292.307 km
Perigee altitude
1,245.339 km
Semi-major axis
7,646.96 km
Eccentricity
0.00307
Inclination
90.2462°
RAAN
10.0018°
Arg. of periapsis
199.3379°
True anomaly
160.77403°
Mean anomaly
160.6579°
Eccentric anomaly
160.71601°
Mean motion
3.24571 °/min
Orbital period
110.92 mins
BSTAR
0.0020688
Loading maneuver chart data...
Computing Atmospheric mass density...
Loading historical data...
Loading historical data...
Loading historical data...
Loading historical data...
Loading historical data...
Loading historical data...
Loading historical data...

Documentation

Showing up to 5 results
|